Location: Larkspur
(54.4391°N, 113.7691°W)
Time: 00:36:01
(UTC+00:00)

YUBILEINY - Pass Details

Date: 06 December 2023
Orbit: 1479 x 1508 km, 82.5° (Epoch: 03 March)

Event Time Altitude Azimuth Distance (km) Brightness Sun altitude
Rises 01:13:06 0° 342° (NNW) 4,639 ? -16.3°
Reaches altitude 10° 01:16:57 10° 357° (N) 3,650 ? -16.8°
Maximum altitude 01:23:30 22° 46° (NE) 2,786 ? -17.8°
Enters shadow 01:24:30 22° 55° (NE) 2,807 ? -17.9°
